WA6MEM Weather Reports


Display with metric or nautical units.
time (UTC)temp
F
wind
direction
speed
MPH
gust
MPH
rain 1hr
in
rain 24hr
in
rain mn
in
humidity
%
barometer
mb
20260503002017 60 202 4.0 0.0 0.00 0.00 0.00 84 1009.4
20260503001513 60 199 4.0 0.0 0.00 0.00 0.00 84 1009.4
20260503001014 60 219 3.0 0.0 0.00 0.00 0.00 84 1009.5
20260503000513 60 360 3.0 0.0 0.00 0.00 0.00 85 1009.5
20260503000013 60 216 4.0 0.0 0.00 0.00 0.00 85 1009.5
20260502235513 60 169 4.0 0.0 0.00 0.00 0.00 85 1009.5
20260502235013 60 158 4.0 0.0 0.00 0.00 0.00 85 1009.5
20260502234522 60 218 5.0 0.0 0.00 0.00 0.00 84 1009.5
20260502234012 60 227 4.0 0.0 0.00 0.00 0.00 84 1009.6
20260502233513 60 202 4.0 0.0 0.00 0.00 0.00 84 1009.6
20260502233014 60 199 4.0 0.0 0.00 0.00 0.00 83 1009.6
20260502232512 60 197 4.0 0.0 0.00 0.00 0.00 84 1009.6
20260502232011 60 188 4.0 0.0 0.00 0.00 0.00 83 1009.6
20260502231511 60 163 4.0 0.0 0.00 0.00 0.00 84 1009.6
20260502231011 60 206 5.0 0.0 0.00 0.00 0.00 84 1009.9
20260502230511 60 207 4.0 0.0 0.00 0.00 0.00 84 1009.9
20260502230011 60 202 4.0 0.0 0.00 0.00 0.00 84 1009.9
20260502225509 60 176 4.0 0.0 0.00 0.00 0.00 85 1009.7
20260502225010 59 154 3.0 0.0 0.00 0.00 0.00 86 1009.7
20260502224509 59 180 4.0 0.0 0.00 0.00 0.00 87 1009.7
20260502224009 59 194 5.0 0.0 0.00 0.00 0.00 87 1010.4
20260502223509 59 178 6.0 0.0 0.00 0.00 0.00 87 1010.4
20260502223009 59 175 5.0 0.0 0.00 0.00 0.00 86 1010.4
20260502222508 60 189 6.0 0.0 0.00 0.00 0.00 85 1010.8
20260502222007 60 198 5.0 0.0 0.00 0.00 0.00 86 1010.8
20260502221507 60 216 5.0 0.0 0.00 0.00 0.00 86 1010.8
20260502221007 60 193 5.0 0.0 0.00 0.00 0.00 86 1011.1
20260502220507 60 148 5.0 0.0 0.00 0.00 0.00 87 1011.1
20260502220011 59 201 6.0 0.0 0.00 0.00 0.00 87 1011.1
20260502215507 59 197 7.0 0.0 0.00 0.00 0.00 87 1011.2
20260502215007 59 152 7.0 0.0 0.00 0.00 0.00 87 1011.2
20260502214517 60 180 6.0 0.0 0.00 0.00 0.00 86 1011.2
20260502214006 60 193 6.0 0.0 0.00 0.00 0.00 86 1011.5
20260502213506 60 200 6.0 0.0 0.00 0.00 0.00 86 1011.5
20260502213006 60 196 6.0 0.0 0.00 0.00 0.00 87 1011.5
20260502212505 60 189 5.0 0.0 0.00 0.00 0.00 87 1011.6
20260502212004 60 189 5.0 0.0 0.00 0.00 0.00 88 1011.6
20260502211507 60 221 5.0 0.0 0.00 0.00 0.00 89 1011.6
20260502211001 59 200 4.0 0.0 0.00 0.00 0.00 89 1011.8
20260502210500 59 221 4.0 0.0 0.00 0.00 0.00 90 1011.8
20260502205559 58 218 5.0 0.0 0.00 0.00 0.00 91 1012.1
20260502205059 58 170 5.0 0.0 0.00 0.00 0.00 92 1012.1
20260502204617 58 230 4.0 0.0 0.00 0.00 0.00 92 1012.1
20260502204059 58 215 4.0 0.0 0.00 0.00 0.00 93 1012.0
20260502203557 58 218 4.0 0.0 0.00 0.00 0.00 93 1012.0
20260502203057 58 207 4.0 0.0 0.00 0.00 0.00 94 1012.0
20260502202559 58 166 4.0 0.0 0.00 0.00 0.00 94 1012.2
20260502202054 57 210 3.0 0.0 0.00 0.00 0.00 95 1012.2
20260502201554 57 188 3.0 0.0 0.00 0.00 0.00 95 1012.2
20260502201053 57 163 3.0 0.0 0.00 0.00 0.00 95 1012.3
20260502200553 57 184 3.0 0.0 0.00 0.00 0.00 95 1012.3
20260502200056 57 191 3.0 0.0 0.00 0.00 0.00 95 1012.3
20260502195553 57 184 3.0 0.0 0.00 0.00 0.00 95 1012.5
20260502195053 57 216 2.0 0.0 0.00 0.00 0.00 96 1012.5
20260502194553 57 192 2.0 0.0 0.00 0.00 0.00 96 1012.5
20260502194057 57 182 2.0 0.0 0.00 0.00 0.00 96 1012.8
20260502193552 57 169 3.0 0.0 0.00 0.00 0.00 96 1012.8
20260502193054 56 209 3.0 0.0 0.00 0.00 0.00 96 1012.8
20260502192550 56 160 3.0 0.0 0.00 0.00 0.00 96 1013.0
20260502192051 56 206 3.0 0.0 0.00 0.00 0.00 96 1013.0
20260502191551 56 184 2.0 0.0 0.00 0.00 0.00 96 1013.0
20260502191049 56 196 1.0 0.0 0.00 0.00 0.00 96 1013.0
20260502190549 56 238 1.0 0.0 0.00 0.00 0.00 96 1013.0
20260502190049 55 182 2.0 0.0 0.00 0.00 0.00 96 1013.0
20260502185548 55 213 2.0 0.0 0.00 0.00 0.00 96 1013.5
20260502185049 55 209 2.0 0.0 0.00 0.00 0.00 96 1013.5
20260502184556 55 235 2.0 0.0 0.00 0.00 0.00 96 1013.5
20260502184053 55 257 2.0 0.0 0.00 0.00 0.00 96 1013.5
20260502183548 55 219 2.0 0.0 0.00 0.00 0.00 96 1013.5
20260502183048 55 165 2.0 0.0 0.00 0.00 0.00 96 1013.5
20260502182547 55 171 2.0 0.0 0.00 0.00 0.00 96 1013.4
20260502182050 55 164 2.0 0.0 0.00 0.00 0.00 96 1013.4
20260502181547 55 146 3.0 0.0 0.00 0.00 0.00 96 1013.4
20260502181049 55 188 2.0 0.0 0.00 0.00 0.00 96 1013.5
20260502180548 56 130 1.0 0.0 0.00 0.00 0.00 96 1013.5
20260502164040 54 178 1.0 0.0 0.00 0.00 0.00 96 1013.8
20260502163541 54 205 2.0 0.0 0.00 0.00 0.00 96 1013.8
20260502163040 54 156 1.0 0.0 0.00 0.00 0.00 96 1013.8
20260502162543 54 173 1.0 0.0 0.00 0.00 0.00 96 1013.6
20260502162039 54 135 1.0 0.0 0.00 0.00 0.00 96 1013.6
20260502161539 54 125 1.0 0.0 0.00 0.00 0.00 96 1013.6
20260502161039 54 132 1.0 0.0 0.00 0.00 0.00 96 1013.8
20260502160541 54 179 0.0 0.0 0.00 0.00 0.00 96 1013.8
20260502152038 54 143 0.0 0.0 0.00 0.00 0.00 96 1013.4
20260502151536 54 143 1.0 0.0 0.00 0.00 0.00 96 1013.4
20260502151037 54 146 1.0 0.0 0.00 0.00 0.00 96 1013.4
20260502150536 54 134 0.0 0.0 0.00 0.00 0.00 96 1013.4
20260502130530 53 267 0.0 0.0 0.00 0.00 0.00 95 1012.4
20260502123532 54 174 2.0 0.0 0.00 0.00 0.00 96 1012.4
20260502123031 54 201 2.0 0.0 0.00 0.00 0.00 96 1012.4
20260502122528 54 171 2.0 0.0 0.00 0.00 0.00 96 1012.2
20260502122028 54 165 1.0 0.0 0.00 0.00 0.00 96 1012.2
20260502121538 54 196 1.0 0.0 0.00 0.00 0.00 96 1012.2
20260502121028 53 194 2.0 0.0 0.00 0.00 0.00 96 1012.0
20260502120528 53 189 2.0 0.0 0.00 0.00 0.00 95 1012.0
20260502115527 54 173 2.0 0.0 0.00 0.00 0.00 96 1011.9
20260502115027 54 159 2.0 0.0 0.00 0.00 0.00 96 1011.9
20260502114527 54 163 2.0 0.0 0.00 0.00 0.00 95 1011.9
20260502114027 54 200 2.0 0.0 0.00 0.00 0.00 95 1011.7
20260502113527 54 195 2.0 0.0 0.00 0.00 0.00 95 1011.7
20260502113026 54 184 2.0 0.0 0.00 0.00 0.00 95 1011.7
20260502112526 54 183 1.0 0.0 0.00 0.00 0.00 95 1011.7
20260502112025 54 196 1.0 0.0 0.00 0.00 0.00 95 1011.7
20260502111526 53 181 1.0 0.0 0.00 0.00 0.00 95 1011.7
20260502111025 53 213 1.0 0.0 0.00 0.00 0.00 95 1011.6
20260502110525 53 144 1.0 0.0 0.00 0.00 0.00 95 1011.6
20260502110032 53 167 2.0 0.0 0.00 0.00 0.00 95 1011.6
20260502105525 53 206 2.0 0.0 0.00 0.00 0.00 95 1011.5
20260502105025 53 194 2.0 0.0 0.00 0.00 0.00 95 1011.5
20260502104524 53 198 1.0 0.0 0.00 0.00 0.00 95 1011.5
20260502104024 53 196 1.0 0.0 0.00 0.00 0.00 95 1011.5
20260502103524 53 224 1.0 0.0 0.00 0.00 0.00 95 1011.5
20260502103024 53 159 0.0 0.0 0.00 0.00 0.00 95 1011.5
20260502102523 53 206 1.0 0.0 0.00 0.00 0.00 95 1011.5
20260502102023 53 193 1.0 0.0 0.00 0.00 0.00 95 1011.5
20260502101523 54 177 1.0 0.0 0.00 0.00 0.00 95 1011.5
20260502101023 54 178 1.0 0.0 0.00 0.00 0.00 95 1011.4
20260502100523 54 198 1.0 0.0 0.00 0.00 0.00 95 1011.4
20260502091520 54 193 1.0 0.0 0.00 0.00 0.00 95 1011.5
20260502091020 54 177 1.0 0.0 0.00 0.00 0.00 95 1011.8
20260502090519 54 171 1.0 0.0 0.00 0.00 0.00 95 1011.8
20260502071515 54 185 1.0 0.0 0.00 0.00 0.00 95 1012.4
20260502071012 54 196 0.0 0.0 0.00 0.00 0.00 95 1012.5
20260502070513 54 177 0.0 0.0 0.00 0.00 0.00 95 1012.5
20260502070020 54 172 0.0 0.0 0.00 0.00 0.00 95 1012.5
20260502065513 54 172 1.0 0.0 0.00 0.00 0.00 95 1012.4
20260502065015 54 172 1.0 0.0 0.00 0.00 0.00 95 1012.4
20260502064513 54 196 0.0 0.0 0.00 0.00 0.00 95 1012.4
20260502064011 54 188 0.0 0.0 0.00 0.00 0.00 95 1012.5
20260502063512 54 188 1.0 0.0 0.00 0.00 0.00 95 1012.5
20260502063021 54 186 1.0 0.0 0.00 0.00 0.00 95 1012.5
20260502062511 54 193 0.0 0.0 0.00 0.00 0.00 95 1012.3
20260502062010 54 193 0.0 0.0 0.00 0.00 0.00 95 1012.3
20260502061510 53 192 0.0 0.0 0.00 0.00 0.00 95 1012.3
20260502061010 53 200 0.0 0.0 0.00 0.00 0.00 95 1012.4
20260502060510 54 200 1.0 0.0 0.00 0.00 0.00 95 1012.4
20260502060017 54 196 0.0 0.0 0.00 0.00 0.00 95 1012.4
20260502055510 54 200 0.0 0.0 0.00 0.00 0.00 95 1012.3
20260502055010 54 200 0.0 0.0 0.00 0.00 0.00 95 1012.3
20260502054520 54 200 0.0 0.0 0.00 0.00 0.00 95 1012.3
20260502054009 54 200 0.0 0.0 0.00 0.00 0.00 95 1012.4
20260502053509 54 200 1.0 0.0 0.00 0.00 0.00 95 1012.4
20260502053009 54 173 1.0 0.0 0.00 0.00 0.00 95 1012.4
20260502052509 54 173 1.0 0.0 0.00 0.00 0.00 95 1012.5
20260502052010 54 159 1.0 0.0 0.00 0.00 0.00 94 1012.5
20260502051509 54 198 2.0 0.0 0.00 0.00 0.00 94 1012.5
20260502051008 54 215 2.0 0.0 0.00 0.00 0.00 94 1012.5
20260502050508 54 170 1.0 0.0 0.00 0.00 0.00 94 1012.5
20260502050011 54 167 1.0 0.0 0.00 0.00 0.00 94 1012.5
20260502045508 54 192 1.0 0.0 0.00 0.00 0.00 94 1012.4
20260502045008 54 167 2.0 0.0 0.00 0.00 0.00 94 1012.4
20260502044507 55 171 2.0 0.0 0.00 0.00 0.00 95 1012.4
20260502044008 55 182 1.0 0.0 0.00 0.00 0.00 94 1012.3
20260502043508 55 244 1.0 0.0 0.00 0.00 0.00 94 1012.3
20260502043008 55 234 1.0 0.0 0.00 0.00 0.00 94 1012.3
20260502042508 55 190 0.0 0.0 0.00 0.00 0.00 94 1012.1
20260502042008 55 144 0.0 0.0 0.00 0.00 0.00 94 1012.1
20260502041507 55 144 0.0 0.0 0.00 0.00 0.00 94 1012.1
20260502041006 55 223 1.0 0.0 0.00 0.00 0.00 94 1011.8
20260502040506 55 268 2.0 0.0 0.00 0.00 0.00 94 1011.8
20260502040009 55 199 2.0 0.0 0.00 0.00 0.00 94 1011.8
20260502035507 55 168 2.0 0.0 0.00 0.00 0.00 94 1011.7
20260502035006 55 169 3.0 0.0 0.00 0.00 0.00 94 1011.7
20260502034506 55 202 3.0 0.0 0.00 0.00 0.00 94 1011.7
20260502034007 55 187 3.0 0.0 0.00 0.00 0.00 94 1011.3
20260502033509 55 218 3.0 0.0 0.00 0.00 0.00 94 1011.3
20260502033008 55 165 4.0 0.0 0.00 0.00 0.00 94 1011.3
20260502032506 55 220 5.0 0.0 0.00 0.00 0.00 94 1011.2
20260502032005 55 165 4.0 0.0 0.00 0.00 0.00 94 1011.2
20260502031505 55 190 3.0 0.0 0.00 0.00 0.00 94 1011.2
20260502031005 55 172 3.0 0.0 0.00 0.00 0.00 94 1011.1
20260502030505 55 236 4.0 0.0 0.00 0.00 0.00 94 1011.1
20260502030006 55 233 5.0 0.0 0.00 0.00 0.00 94 1011.1
20260502025504 56 254 5.0 0.0 0.00 0.00 0.00 94 1011.3
20260502025004 56 232 4.0 0.0 0.00 0.00 0.00 94 1011.3
20260502024505 56 286 3.0 0.0 0.00 0.00 0.00 94 1011.3
20260502024007 56 226 3.0 0.0 0.00 0.00 0.00 94 1011.2
20260502023504 56 237 4.0 0.0 0.00 0.00 0.00 94 1011.2
20260502023004 56 208 3.0 0.0 0.00 0.00 0.00 94 1011.2
20260502022504 56 224 4.0 0.0 0.00 0.00 0.00 93 1011.2
20260502022007 56 213 4.0 0.0 0.00 0.00 0.00 93 1011.2
20260502021506 56 221 4.0 0.0 0.00 0.00 0.00 93 1011.2
20260502021006 56 211 3.0 0.0 0.00 0.00 0.00 93 1010.8
20260502020507 56 209 4.0 0.0 0.00 0.00 0.00 93 1010.8
20260502020003 57 187 4.0 0.0 0.00 0.00 0.00 93 1010.8
20260502015503 57 246 4.0 0.0 0.00 0.00 0.00 93 1010.8
20260502015003 57 182 5.0 0.0 0.00 0.00 0.00 93 1010.8
20260502014503 57 228 5.0 0.0 0.00 0.00 0.00 92 1010.8
20260502014002 57 161 4.0 0.0 0.00 0.00 0.00 92 1010.8
20260502013504 57 194 4.0 0.0 0.00 0.00 0.00 92 1010.8
20260502013003 57 216 5.0 0.0 0.00 0.00 0.00 92 1010.8
20260502012502 57 262 5.0 0.0 0.00 0.00 0.00 92 1011.0
20260502012002 57 208 5.0 0.0 0.00 0.00 0.00 92 1011.0
20260502011502 57 224 4.0 0.0 0.00 0.00 0.00 92 1011.0
20260502011002 57 211 4.0 0.0 0.00 0.00 0.00 92 1010.7
20260502010501 57 229 3.0 0.0 0.00 0.00 0.00 92 1010.7
20260502010001 57 306 5.0 0.0 0.00 0.00 0.00 92 1010.7
20260502005501 57 164 6.0 0.0 0.00 0.00 0.00 91 1010.7
20260502005001 58 293 5.0 0.0 0.00 0.00 0.00 90 1010.7
20260502004501 58 294 5.0 0.0 0.00 0.00 0.00 90 1010.6
20260502004001 59 278 4.0 0.0 0.00 0.00 0.00 89 1010.6
20260502003600 59 248 4.0 0.0 0.00 0.00 0.00 89 1010.6
20260502003100 60 249 3.0 0.0 0.00 0.00 0.00 88 1010.6
20260502002559 60 209 4.0 0.0 0.00 0.00 0.00 89 1010.6